Change the Weather History Date:

Friday, July 5, 2013

  Actual Average Record
Temperature  
Mean Temperature 73 °F 78 °F  
Max Temperature 79 °F 87 °F 102 °F (2012)
Min Temperature 67 °F 69 °F 53 °F (1968)
Degree Days  
Heating Degree Days 0 0  
Month to date heating degree days 0 0  
Since 1 June heating degree days 0 3  
Since 1 July heating degree days 0 0  
Cooling Degree Days 8 13  
Month to date cooling degree days 39 65  
Year to date cooling degree days 522 517  
Since 1 June cooling degree days 336 370  
Growing Degree Days 22 (Base 50)    
Moisture  
Dew Point 67 °F    
Average Humidity 86    
Maximum Humidity 100    
Minimum Humidity 71    
Precipitation  
Precipitation 0.06 in 0.10 in 1.52 in (2007)
Month to date precipitation 0.93 0.50  
Year to date precipitation 28.26 24.56  
Sea Level Pressure  
Sea Level Pressure 30.11 in    
Wind  
Wind Speed 3 mph (SE)    
Max Wind Speed 10 mph    
Max Gust Speed 14 mph    
Visibility 9 miles    
Events Rain    
T = Trace of Precipitation, MM = Missing Value Source: NWS Daily Summary

Daily Weather History Graph

Daily Weather History Graph

Search for Another Location

Airport or City:

Trip Planner

Search our weather history database for the weather conditions in past years. The results will help you decide how hot, cold, wet, or windy it might be!

Date:

Astronomy

Jul. 05, 2013 Rise Set
Actual Time 6:25 AM EDT 9:09 PM EDT
Civil Twilight 5:53 AM EDT 9:40 PM EDT
Nautical Twilight 5:14 AM EDT 10:19 PM EDT
Astronomical Twilight 4:30 AM EDT 11:03 PM EDT
Moon 4:23 AM EDT (7/5) 7:04 PM EDT (7/5)
Length of Visible Light 15h 46m
Length of Day
14h 43m
Waning Crescent, 6% of the Moon is Illuminated
Jul 5
Waning Crescent
Jul 8
New
Jul 15
First Quarter
Jul 22
Full
Jul 29
Last Quarter

Hourly Weather History & Observations

Time (EDT) Temp. Dew Point Humidity Pressure Visibility Wind Dir Wind Speed Gust Speed Precip Events Conditions
12:02 AM 68.0 °F 66.2 °F 94% 30.12 in 2.5 mi Calm Calm - N/A   Clear
12:26 AM 68.0 °F 66.2 °F 94% 30.12 in 1.8 mi Calm Calm - N/A   Partly Cloudy
12:34 AM 68.0 °F 66.2 °F 94% 30.12 in 2.0 mi East 3.5 mph - 0.00 in Rain Light Rain
12:53 AM 66.9 °F 66.0 °F 97% 30.12 in 2.5 mi Calm Calm - 0.00 in Rain Light Rain
1:01 AM 68.0 °F 64.4 °F 88% 30.12 in 3.0 mi East 4.6 mph - 0.00 in Rain Light Rain
1:53 AM 66.9 °F 64.9 °F 93% 30.11 in 10.0 mi Calm Calm - 0.00 in   Overcast
2:53 AM 66.9 °F 64.9 °F 93% 30.09 in 10.0 mi ENE 3.5 mph - N/A   Clear
3:53 AM 66.9 °F 64.9 °F 93% 30.08 in 10.0 mi Calm Calm - N/A   Overcast
4:53 AM 66.9 °F 64.9 °F 93% 30.08 in 10.0 mi Calm Calm - N/A   Overcast
5:16 AM 66.2 °F 64.4 °F 94% 30.09 in 10.0 mi Calm Calm - N/A   Overcast
5:53 AM 66.9 °F 64.9 °F 93% 30.10 in 10.0 mi Calm Calm - N/A   Overcast
6:50 AM 66.2 °F 66.2 °F 100% 30.10 in 5.0 mi East 3.5 mph - 0.00 in   Overcast
6:53 AM 66.9 °F 66.0 °F 97% 30.09 in 6.0 mi East 3.5 mph - 0.00 in   Overcast
7:33 AM 68.0 °F 66.2 °F 94% 30.11 in 10.0 mi Calm Calm - 0.00 in   Overcast
7:42 AM 68.0 °F 66.2 °F 94% 30.12 in 10.0 mi SE 3.5 mph - 0.00 in   Overcast
7:53 AM 68.0 °F 66.0 °F 93% 30.11 in 10.0 mi Calm Calm - 0.00 in   Overcast
8:09 AM 68.0 °F 66.2 °F 94% 30.13 in 1.8 mi Calm Calm - 0.00 in Rain Light Rain
8:17 AM 68.0 °F 66.2 °F 94% 30.12 in 3.0 mi East 3.5 mph - 0.00 in Rain Light Rain
8:25 AM 68.0 °F 66.2 °F 94% 30.13 in 10.0 mi Calm Calm - 0.00 in   Overcast
8:40 AM 68.0 °F 66.2 °F 94% 30.13 in 10.0 mi SE 3.5 mph - 0.00 in   Overcast
8:53 AM 68.0 °F 66.9 °F 96% 30.12 in 10.0 mi ESE 3.5 mph - 0.00 in   Overcast
9:26 AM 69.8 °F 66.2 °F 88% 30.14 in 10.0 mi SE 3.5 mph - N/A   Overcast
9:53 AM 71.1 °F 66.9 °F 87% 30.13 in 10.0 mi SE 3.5 mph - N/A   Overcast
10:03 AM 71.6 °F 66.2 °F 83% 30.14 in 10.0 mi Variable 3.5 mph - N/A   Overcast
10:16 AM 69.8 °F 66.2 °F 88% 30.14 in 10.0 mi SE 5.8 mph - 0.00 in Rain Light Rain
10:24 AM 71.6 °F 68.0 °F 88% 30.14 in 9.0 mi SSE 3.5 mph - 0.01 in Rain Light Rain
10:53 AM 71.1 °F 68.0 °F 90% 30.14 in 10.0 mi SSE 5.8 mph - 0.01 in   Overcast
11:45 AM 71.6 °F 68.0 °F 88% 30.14 in 10.0 mi SSE 3.5 mph - N/A   Overcast
11:53 AM 72.0 °F 68.0 °F 87% 30.12 in 10.0 mi SE 3.5 mph - N/A   Overcast
12:05 PM 71.6 °F 68.0 °F 88% 30.14 in 10.0 mi South 3.5 mph - 0.00 in Rain Light Rain
12:12 PM 71.6 °F 68.0 °F 88% 30.14 in 10.0 mi SW 4.6 mph - 0.00 in Rain Light Rain
12:22 PM 73.4 °F 69.8 °F 88% 30.14 in 10.0 mi Calm Calm - 0.00 in Rain Light Rain
12:53 PM 73.9 °F 69.1 °F 85% 30.12 in 10.0 mi SSE 3.5 mph - 0.00 in   Overcast
1:53 PM 75.9 °F 69.1 °F 79% 30.12 in 10.0 mi Calm Calm - N/A   Overcast
2:53 PM 77.0 °F 68.0 °F 74% 30.10 in 10.0 mi Variable 3.5 mph - N/A   Overcast
3:07 PM 77.0 °F 68.0 °F 74% 30.10 in 10.0 mi South 3.5 mph - N/A   Overcast
3:53 PM 79.0 °F 69.1 °F 72% 30.10 in 10.0 mi SSW 3.5 mph - N/A   Overcast
4:02 PM 78.8 °F 66.2 °F 65% 30.11 in 10.0 mi South 5.8 mph - N/A   Overcast
4:53 PM 78.1 °F 68.0 °F 71% 30.09 in 10.0 mi SE 4.6 mph - N/A   Partly Cloudy
5:53 PM 78.1 °F 69.1 °F 74% 30.08 in 10.0 mi South 3.5 mph - N/A   Partly Cloudy
6:09 PM 78.8 °F 69.8 °F 74% 30.09 in 10.0 mi SE 4.6 mph - N/A   Mostly Cloudy
6:45 PM 78.8 °F 69.8 °F 74% 30.10 in 10.0 mi SE 5.8 mph - N/A   Mostly Cloudy
6:53 PM 78.1 °F 70.0 °F 76% 30.09 in 10.0 mi Variable 4.6 mph - N/A   Mostly Cloudy
7:53 PM 77.0 °F 70.0 °F 79% 30.09 in 10.0 mi SSE 4.6 mph - N/A   Mostly Cloudy
8:53 PM 75.0 °F 70.0 °F 84% 30.09 in 10.0 mi SSE 5.8 mph - 0.00 in Rain Light Rain
9:53 PM 73.9 °F 70.0 °F 87% 30.11 in 10.0 mi SE 5.8 mph - 0.00 in   Partly Cloudy
10:53 PM 73.0 °F 70.0 °F 90% 30.12 in 10.0 mi South 6.9 mph - 0.01 in Rain Light Rain
11:53 PM 72.0 °F 68.0 °F 87% 30.12 in 10.0 mi SSE 3.5 mph - 0.01 in   Clear